Home   Weather   Eastbourne   Past weeks

Flag for United Kingdom Past Weather in Eastbourne, England, United Kingdom — Yesterday and Last 2 Weeks

Now
53 °F

Smoke.


Feels Like: 51 °F
Forecast: 51 / 54 °F
Wind: 6 mph from Southwest

Location: Herstmonceux

Current Time: Dec 9, 2016 at 2:02:58 am

Latest Report: Dec 9, 2016 at 12:00 am


Visibility: 3 mi

Pressure: 30.35 "Hg

Humidity: 94%

Dew Point: 51 °F

Location of EastbourneLocation

Past Weather in Eastbourne — Graph

°F

Eastbourne Temperature Yesterday

Maximum temperature yesterday: 54 °F (at 12:00 pm)
Minimum temperature yesterday: 50 °F (at 3:00 am)
Average temperature yesterday: 52 °F

High & Low Weather Summary for the Past Weeks

 TemperatureHumidityPressure
High55 °F (Dec 7, 12:00 pm)100% (Dec 5, 10:00 am)30.60 "Hg (Dec 5, 10:00 am)
Low26 °F (Nov 30, 8:00 am)41% (Nov 30, 2:00 pm)30.06 "Hg (Nov 25, 3:00 pm)
Average42 °F83%30.30 "Hg
* Reported Nov 24 12:00 am — Dec 9 12:00 am, Eastbourne, Weather by CustomWeather, © 2016

Note: Actual official high and low records may vary slightly from our data, if they occured in-between our weather recording intervals... More about our weather records

Advertising

Eastbourne Weather History for the Previous 24 Hours

Scroll right to see more
 ConditionsComfort  
Time TempWeatherWind HumidityBarometerVisibility
12:00 am
Fri, Dec 9
53 °FSmoke.6 mph94%30.35 "Hg3 mi
11:00 pm
Thu, Dec 8
53 °FFog.6 mph95%30.35 "Hg4 mi
10:00 pm53 °FFog.5 mph97%30.35 "Hg2 mi
9:00 pm53 °FCool.7 mph98%30.35 "Hg2 mi
8:00 pm53 °FFog.5 mph97%30.35 "Hg1 mi
7:00 pm53 °FFog.7 mph94%30.34 "Hg2 mi
6:00 pm53 °FSmoke.6 mph93%30.33 "Hg4 mi
5:00 pm53 °FSmoke.10 mph91%30.31 "Hg6 mi
4:00 pm52 °FCool.8 mph91%30.30 "Hg7 mi
3:00 pm52 °FCool.6 mph88%30.30 "Hg9 mi
2:00 pm54 °FSmoke.8 mph80%30.30 "Hg4 mi
1:00 pm54 °FCool.6 mph79%30.29 "Hg11 mi
12:00 pm54 °FCool.6 mph80%30.31 "Hg12 mi
11:00 am54 °FCool.7 mph81%30.32 "Hg11 mi
10:00 am52 °FCool.3 mph87%30.32 "Hg8 mi
9:00 am51 °FCool.5 mph90%30.32 "Hg8 mi
8:00 am50 °FCool.6 mph89%30.31 "Hg9 mi
7:00 am51 °FCool.7 mph87%30.32 "Hg9 mi
6:00 am51 °FCool.7 mph84%30.33 "Hg11 mi
5:00 am50 °FCool.8 mph84%30.34 "Hg13 mi
3:00 am50 °FCool.6 mph82%30.35 "Hg17 mi
Weather by CustomWeather, © 2016

See weather overviewHow to use our weather pages